This demonstration page uses our WeatherBlox Daily Observations layout. Learn more.

Left ArrowRight Arrow

39.92423, -83.80882

Hourly Observations for June 16, 2021

Temp ( °F °C ) Dew Point ( °F °C ) Humidity (%) Winds ( mph kmh ) Pressure ( in mb ) Visibility ( mi km ) Precip ( " mm )
12:56 am 00:56 Cloudy 60 15.6 55 12.8 84 84 ENE 7 11 30.04 1017 10 16 N/A
1:56 am 01:56 Mostly Clear 57 13.9 53 11.7 87 87 ENE 8 13 30.04 1017 10 16 N/A
2:56 am 02:56 Clear 56 13.3 53 11.7 90 90 E 5 7 30.04 1017 10 16 N/A
3:56 am 03:56 Clear 55 12.8 53 11.7 93 93 ENE 3 6 30.05 1018 10 16 N/A
4:56 am 04:56 Cloudy 55 12.8 54 12.2 96 96 ENE 5 7 30.06 1018 10 16 N/A
5:56 am 05:56 Clear 54 12.2 54 12.2 100 100 N N/A 30.08 1019 10 16 N/A
6:56 am 06:56 Partly Cloudy 54 12.2 52 11.1 93 93 NE 6 9 30.10 1019 10 16 N/A
7:56 am 07:56 Sunny 59 15 51 10.6 75 75 NE 7 11 30.10 1019 10 16 N/A
8:56 am 08:56 Sunny 63 17.2 48 8.9 58 58 NE 9 15 30.11 1020 10 16 N/A
9:56 am 09:56 Sunny 65 18.3 46 7.8 51 51 NE 5 7 30.12 1020 10 16 N/A
10:56 am 10:56 Sunny 68 20 45 7.2 44 44 VRB 3 6 30.11 1020 10 16 N/A
11:56 am 11:56 Sunny 70 21.1 43 6.1 38 38 NE 6 9 30.12 1020 10 16 N/A
12:56 pm 12:56 Sunny 72 22.2 45 7.2 38 38 NNW 9 15 30.11 1020 10 16 N/A
1:56 pm 13:56 Sunny 73 22.8 46 7.8 38 38 N 8 13 30.10 1019 10 16 N/A
2:56 pm 14:56 Mostly Sunny 75 23.9 45 7.2 34 34 WNW 6 9 30.08 1019 10 16 N/A
3:56 pm 15:56 Sunny 76 24.4 47 8.3 36 36 NNW 6 9 30.06 1018 10 16 N/A
4:56 pm 16:56 Mostly Sunny 76 24.4 46 7.8 35 35 NNE 7 11 30.06 1018 10 16 N/A
5:56 pm 17:56 Sunny 76 24.4 44 6.7 32 32 WNW 5 7 30.05 1018 10 16 N/A
6:56 pm 18:56 Sunny 74 23.3 45 7.2 36 36 N 6 9 30.04 1017 10 16 N/A
7:56 pm 19:56 Sunny 72 22.2 48 8.9 43 43 N 6 9 30.04 1017 10 16 N/A
8:56 pm 20:56 Sunny 70 21.1 46 7.8 42 42 NE 6 9 30.04 1017 10 16 N/A
9:56 pm 21:56 Clear 66 18.9 48 8.9 52 52 N N/A 30.05 1018 10 16 N/A
10:56 pm 22:56 Clear 61 16.1 49 9.4 65 65 E 3 6 30.06 1018 10 16 N/A
11:56 pm 23:56 Clear 60 15.6 50 10 70 70 SE 3 6 30.06 1018 10 16 N/A

Powered by AerisWeather